Weather in Miatli

Russia / Republic of Dagestan     43°04′57″N   46°49′42″E
temp.,
°C
wind,
m/s
gust,
m/s
humid.,
%
clouds,
%
prec.,
mm/h
press.,
hPa
HPBL,
m
26 february, fri
fri2600:00−1w372796 0.0 1030247
03:00−2wnw476098 0.0 1028267
06:00−1w4572100 0.0 1028142
09:00+3wnw61255100 0.0 10261080
12:00+5wnw6106296 0.0 1025929
15:00+4wnw577195 0.0 1024673
18:00+1w477898 0.0 1025183
21:00+1w468399 0.0 1025177
27 february, sat
sat2700:00+1wsw338394 0.0 102469
03:00+1wsw238267 0.0 102330
06:00+1sw22818 0.0 102222
09:00+4ne00715 0.0 1021211
12:00+6ne217220 0.0 1019641
15:00+5nne228156 0.1 1017472
18:00+2wsw008879 0.0 101722
21:00+2wsw128247 0.0 101722
28 february, sun
sun2800:00+2sw22720 0.0 101624
03:00+2wsw22671 0.0 101524
06:00+2wsw127018 0.0 101522
09:00+3nnw127823 0.0 1015278
12:00+3ene228926 0.0 1014290
15:00+3ne229451 0.1 1013222
18:00+1nne1299100 0.2 1015112
21:00+1n1199100 1.5 1017108
1 march, mon
mon100:000nnw2299100 2.6 1018135
03:00−1nnw2398100 5.9 1019167
06:00−2nnw2398100 1.9 1021182
09:00−2nnw2397100 2.8 1022228
12:00−1nnw3497100 0.8 1023382
15:00−1nnw2393100 1.2 1024395
18:00−2nnw1298100 0.4 1026146
21:00−3wnw1194100 0.4 102851
2 march, tue
tue200:00−3wsw0195100 0.1 102838
03:00−3sw0092100 0.2 102825
06:00−3n0096100 0.3 102925
09:00−2ne2296100 0.6 1029199
12:00−2ne2297100 0.6 1029272
15:00−2ne2296100 1.1 1027241
18:00−2nne1199100 0.4 1027129
21:00−3nne0198100 0.6 102766